Weather History for Alliance, NE

Change the Weather History Date:

Saturday, February 2, 2013

  Actual Average Record
Temperature  
Mean Temperature 35 °F 25 °F  
Max Temperature 49 °F 39 °F 64 °F (1992)
Min Temperature 21 °F 11 °F -25 °F (2011)
Degree Days  
Heating Degree Days 30 40  
Month to date heating degree days 63 80  
Since 1 July heating degree days 4132 4425  
Cooling Degree Days 0 0  
Month to date cooling degree days 0 0  
Year to date cooling degree days 0 0  
Moisture  
Dew Point 21 °F    
Average Humidity 57    
Maximum Humidity 88    
Minimum Humidity 26    
Precipitation  
Precipitation 0.00 in 0.01 in 0.90 in (1919)
Month to date precipitation 0.00 0.02  
Year to date precipitation T 0.20  
Sea Level Pressure  
Sea Level Pressure 30.26 in    
Wind  
Wind Speed 16 mph (WNW)    
Max Wind Speed 33 mph    
Max Gust Speed 41 mph    
Visibility 10 miles    
Events      
T = Trace of Precipitation, MM = Missing Value Source: NWS Daily Summary

Daily Weather History Graph

Daily Weather History Graph

Search for Another Location

Airport:

Trip Planner

Search our weather history database for the weather conditions in past years. The results will help you decide how hot, cold, wet, or windy it might be!

Date:

Astronomy

Feb. 02, 2013 Rise Set
Actual Time 7:02 AM MST 5:07 PM MST
Civil Twilight 6:33 AM MST 5:37 PM MST
Nautical Twilight 5:59 AM MST 6:10 PM MST
Astronomical Twilight 5:27 AM MST 6:43 PM MST
Moon No Moon Rise 10:06 AM MST (2/2)
Length of Visible Light 11h 04m
Length of Day
10h 04m
Waning Gibbous, 59% of the Moon is Illuminated
Feb 2
Waning Gibbous
Feb 3
Last Quarter
Feb 10
New
Feb 17
First Quarter
Feb 25
Full

Hourly Weather History & Observations

Time (MST) Temp. Windchill Dew Point Humidity Pressure Visibility Wind Dir Wind Speed Gust Speed Precip Events Conditions
12:53 AM 30.0 °F 20.5 °F 26.1 °F 85% 30.18 in 10.0 mi WNW 11.5 mph - N/A   Partly Cloudy
1:53 AM 33.8 °F 23.5 °F 26.6 °F 75% 30.16 in 10.0 mi WNW 16.1 mph - N/A   Scattered Clouds
2:53 AM 25.0 °F 13.6 °F 21.0 °F 85% 30.23 in 10.0 mi West 12.7 mph - N/A   Clear
3:53 AM 25.0 °F 14.2 °F 21.9 °F 88% 30.24 in 10.0 mi West 11.5 mph - N/A   Clear
4:53 AM 25.0 °F 13.6 °F 21.0 °F 85% 30.27 in 10.0 mi West 12.7 mph - N/A   Clear
5:53 AM 23.0 °F 12.4 °F 19.9 °F 88% 30.27 in 10.0 mi West 10.4 mph - N/A   Clear
6:53 AM 25.0 °F 18.1 °F 19.9 °F 81% 30.28 in 10.0 mi SW 5.8 mph - N/A   Clear
7:53 AM 28.0 °F 16.5 °F 21.0 °F 75% 30.27 in 10.0 mi WNW 15.0 mph - N/A   Clear
8:53 AM 34.0 °F 22.7 °F 23.0 °F 64% 30.25 in 10.0 mi West 19.6 mph - N/A   Clear
9:53 AM 39.0 °F 29.6 °F 24.1 °F 55% 30.27 in 10.0 mi West 18.4 mph - N/A   Clear
10:53 AM 44.1 °F 35.4 °F 21.9 °F 42% 30.25 in 10.0 mi WNW 21.9 mph 26.5 mph N/A   Clear
11:53 AM 45.0 °F 36.9 °F 19.9 °F 37% 30.23 in 10.0 mi NW 20.7 mph 31.1 mph N/A   Clear
12:53 PM 46.9 °F - 19.9 °F 34% 30.22 in 10.0 mi WNW 23.0 mph 31.1 mph N/A   Clear
1:53 PM 48.0 °F - 16.0 °F 28% 30.19 in 10.0 mi NW 25.3 mph 41.4 mph N/A   Clear
2:53 PM 48.0 °F - 18.0 °F 30% 30.23 in 10.0 mi NW 26.5 mph 35.7 mph N/A   Clear
3:53 PM 46.0 °F 37.6 °F 17.1 °F 31% 30.25 in 10.0 mi NW 24.2 mph 34.5 mph N/A   Clear
4:53 PM 41.0 °F 31.6 °F 19.9 °F 43% 30.27 in 10.0 mi NNW 20.7 mph 26.5 mph N/A   Clear
5:53 PM 34.0 °F 26.0 °F 21.9 °F 61% 30.32 in 10.0 mi NW 10.4 mph - N/A   Clear
6:53 PM 36.0 °F 26.0 °F 21.9 °F 57% 30.30 in 10.0 mi NW 17.3 mph - N/A   Clear
7:53 PM 34.0 °F 23.8 °F 21.0 °F 59% 30.30 in 10.0 mi NW 16.1 mph - N/A   Clear
8:53 PM 27.0 °F 15.6 °F 19.9 °F 75% 30.31 in 10.0 mi WSW 13.8 mph - N/A   Clear
9:53 PM 26.1 °F 16.2 °F 19.0 °F 75% 30.29 in 10.0 mi West 10.4 mph - N/A   Clear
10:53 PM 21.9 °F 13.4 °F 18.0 °F 85% 30.29 in 10.0 mi West 6.9 mph - N/A   Clear
11:53 PM 23.0 °F 14.7 °F 18.0 °F 81% 30.28 in 10.0 mi West 6.9 mph - N/A   Clear